Regional Weather Roundup
Issued by NWS Wakefield, VA

Home | Current Version | Previous Version | Graphics & Text | Print | Product List | Glossary On
Versions: 1 2 3 4 5 6 7 8 9 10 11 12 13 14 15 16 17 18 19 20 21 22 23 24 25 26 27 28 29 30 31 32 33 34 35 36 37 38 39 40 41 42 43 44 45 46 47 48 49 50
000
ASUS41 KAKQ 020715
RWRAKQ

REGIONAL WEATHER ROUNDUP
NATIONAL WEATHER SERVICE WAKEFIELD VA
300 AM EDT SUN AUG 02 2015

Note: "fair" indicates few or no clouds below 12,000 feet with no
significant weather and/or obstructions to visibility. * = Denotes
station may not report precipitation (e.g., rain,snow,etc.),
thunder or fog.

VAZ042-051-052>054-056-020800-
NORTHERN VIRGINIA

CITY           SKY/WX    TMP DP  RH WIND       PRES   REMARKS
WASH NATIONAL  PTCLDY    77  61  57 N6        29.92S
DULLES         PTCLDY    67  60  78 W3        29.93S
FORT BELVOIR   NOT AVBL
QUANTICO       NOT AVBL
FREDERICKSBRG* CLEAR     70  63  79 CALM      29.91S
STAFFORD*      PTCLDY    63  61  92 CALM      29.96S
WARRENTON      PTCLDY    63  63 100 CALM      29.92F
CULPEPER*      CLEAR     63  63  99 CALM      29.94S
MANASSAS*      CLEAR     64  64 100 CALM      29.93S
LEESBURG*      MOCLDY    70  61  73 CALM      29.94F
WINCHESTER     CLEAR     63  55  77 CALM      29.95S
FRONT ROYAL*   FAIR      64  55  72 SW7       29.95S
LURAY*         FAIR      63  59  88 SW5       29.97S
$$

VAZ048-049-060>072-079>083-020800-
CENTRAL AND SOUTH CENTRAL VIRGINIA

CITY           SKY/WX    TMP DP  RH WIND       PRES   REMARKS
RICHMOND       PTCLDY    75  61  61 N8        29.91R
CHESTERFIELD*  PTSUNNY   70  57  64 NW5       29.93R
PETERSBURG*    PTCLDY    72  71  97 NW6       29.92R
HANOVER        MOCLDY    69  64  84 CALM      29.93R
TAPPAHANNOCK*  PTCLDY    71  65  80 CALM      29.92R
QUINTON*       FAIR      73  65  75 CALM      29.90R
CHARLOTTSVILLE CLEAR     64  59  83 CALM      29.94S
GORDONSVILLE*  FAIR      61  61 100 CALM      29.93F
ORANGE*        CLEAR     64  63  94 CALM      29.95S
LOUISA*        PTCLDY    64  61  88 NW3       29.93S
BUMPASS*       PTSUNNY   69  63  81 NW3       29.92S
FARMVILLE*     CLEAR     65  63  94 CALM      29.93S
CREWE*         NOT AVBL
FORT PICKETT*  FAIR      72  58  60 N7        29.93S
CHASE CITY*    FAIR      69  65  87 CALM      29.94S
CLARKSVILLE*   FAIR      70  61  73 CALM      29.94S
SOUTH HILL*    CLEAR     69  61  76 N5        29.98S
LAWRENCEVILLE* FAIR      72  64  78 NW3       29.91S
EMPORIA*       CLEAR     68  63  83 NW3       29.92S
$$

VAZ088>098-020800-
SOUTHEAST VIRGINIA

CITY           SKY/WX    TMP DP  RH WIND       PRES   REMARKS
NORFOLK        CLEAR     76  72  87 SW8       29.87F
VIRGINIA BEACH CLEAR     77  72  84 SW7       29.87F
NORFOLK NAVAL  PTCLDY    76  73  91 S5        29.89S
WEST POINT*    CLEAR     75  70  82 CALM      29.90S
SALUDA*        FAIR      76  72  85 NW9       29.88S
NEWPORT NEWS   CLEAR     77  72  84 W7        29.88S
LANGLEY AFB    CLEAR     76  73  91 SW7       29.88S
FORT EUSTIS    CLEAR     77  73  88 W3        29.87S
WILLIAMSBURG*  CLEAR     73  72  94 CALM      29.90S
HR EXEC AP*    FAIR      68  64  88 CALM      29.91S
FRANKLIN*      CLEAR     69  67  95 CALM      29.90S
WAKEFIELD      CLEAR     68  65  90 CALM      29.89S
$$

VAZ020-022-025-037-045-020800-
WEST CENTRAL AND SOUTHWEST VIRGINIA

CITY           SKY/WX    TMP DP  RH WIND       PRES   REMARKS
STAUNTON*      CLEAR     61  57  87 CALM      30.00S
WAYNESBORO*    FAIR      58  56  93 SW5       29.99F
HOT SPRINGS VA CLEAR     62  52  70 N8        30.08S
LYNCHBURG      CLEAR     61  57  87 W5        29.97F
DANVILLE       CLEAR     64  61  90 CALM      29.95F
SOUTH BOSTON*  FAIR      64  62  95 CALM      29.94F
MARTINSVILLE   CLEAR     61  61 100 CALM      30.00S
ROANOKE        CLEAR     64  56  75 W3        30.01S
BLACKSBURG     CLEAR     58  57  97 CALM      30.06F
DUBLIN*          N/A     60  58  92 CALM      30.05F
MARION*        PTCLDY    59  58  94 CALM      30.09S
HILLSVILLE*    PTCLDY    61  57  88 SW3       30.06S
RICHLANDS*     FAIR      61  60  96 CALM      30.07S
WISE*          PTCLDY    63  61  94 CALM      30.09S
ABINGDON*      CLEAR     63  60  88 CALM      30.05S
$$

MDZ021>025-VAZ099-100-020800-
SOUTHERN MARYLAND AND THE DELMARVA PENINSULA

CITY           SKY/WX    TMP DP  RH WIND       PRES   REMARKS
PATUXENT RIVER PTCLDY    77  61  57 N7        29.89S
BAY BRIDGE APT   N/A     75  63  64 N3        29.90S
LEONARDTOWN    PTCLDY    73  61  64 CALM      29.92S
DOVER          CLEAR     71  71 100 W3        29.87F
GEORGETOWN     PTCLDY    69  67  93 CALM      29.89F
EASTON         CLEAR     72  72 100 CALM      29.93S
CAMBRIDGE      CLEAR     72  68  88 NW3       29.89S
SALISBURY      CLEAR     70  66  87 CALM      29.88F
OCEAN CITY     PTCLDY    73  64  73 NW5       29.87F
WALLOPS ISLAND MOCLDY    76  75  97 N3        29.89R
ACCOMACK*      CLEAR    N/A N/A N/A CALM      29.87S
$$

NCZ012>017-030>032-020800-
NORTH CENTRAL AND EASTERN NORTH CAROLINA

CITY           SKY/WX    TMP DP  RH WIND       PRES   REMARKS
ROANOKE RAPIDS FAIR      64  63  94 CALM      29.90S
RALEIGH        CLEAR     72  61  68 CALM      29.93S
ELIZABETH CITY CLEAR     75  74  96 SW3       29.88F FOG
AHOSKIE*       CLEAR     68  65  90 CALM      29.91R
EDENTON*         N/A     78  73  87 W6        29.89F
CURRITUCK*     CLEAR     75  73  91 CALM      29.89F
KILL DEVIL HLS CLEAR     78  74  85 SW6       29.88F
MANTEO         CLEAR     78  75  91 W10       29.89F
CAPE HATTERAS  MOCLDY    79  75  87 W7        29.89F
TARBORO*         N/A     68  66  93 NW6       29.92R
GOLDSBORO      CLEAR     76  75  96 S2        29.89S
WASHINGTON     PTCLDY    75  73  93 SW5       29.91S
GREENVILLE     CLEAR     73  73 100 CALM      29.92F
NEW BERN       CLEAR     74  71  91 SW3       29.91F
WILMINGTON     CLEAR     76  73  91 W3        29.91F
$$

VAZ048-020800-
ELSEWHERE

CITY           SKY/WX    TMP DP  RH WIND       PRES   REMARKS
HARRISBURG PA  CLEAR     70  58  65 CALM      29.90S
BALTIMORE      MOCLDY    69  61  75 CALM      29.91S
ANNAPOLIS      PTCLDY    72  64  76 CALM      29.90S
ANDREWS AFB    NOT AVBL
PHILADELPHIA   PTCLDY    74  59  59 NW7       29.89S
HENDERSON NC   CLEAR     70  57  63 N3        29.95R
GREENSBORO     PTCLDY    71  57  61 N3        29.96F
ROCKY MOUNT    PTCLDY    70  65  84 CALM      29.91S
$$

VAZ100-020800-
MARINE

STATION/POSITION TIME  TEMP    WIND        PRES    WAVE   SWELL
                       AIR SEA DIR/SP/G            HT/PER HT/PER
                 (UTC) (F)     (DEG/KT/KT) (MB)    (FT/S) (FT/S)
BRANDYWINE LGT   0600   75 73  250/  7/  8 1012.3R
CAPE MAY NJ      0600   73 76  250/  2/  3 1011.8R
LEWES DE         0600   71 75  240/  3/  4 1011.9R
15NM E FENWICK I 0650   79 79  230/  2/  4 1011.9F   3/ 8   3/ 8
OCEAN-CITY-INLET 0600   75 73  190/  3/  4 1011.1F
WACHAPREAGUE VA  0600   80 83  230/  2/  4 1011.6F
GOOSES REEF MD   0700   81 82  360/ 12/ 14 1013.3F
COVE POINT MD    0600   81     360/ 14/ 16 1012.9R
SOLOMONS ISLAND  0600      83                N/A
BISHOPS HEAD MD  0600   79 83  340/  7/  9 1011.1R
PINEY POINT MD   0600           20/  7/  8   N/A
POTOMAC MD       0700   80 83   10/  8/ 10 1011.1R   1
CAMBRIDGE MD     0600   81 85  330/  5/  6 1011.2F
LEWISETTA VA     0600   78 85  310/  9/ 11 1012.0R
RAPPAHANNOCK LGT 0600          240/ 14/ 15 1012.0S
STINGRAY PT      0700   81 84  330/ 10/ 12 1011.8S   1
YORK RVR RNG VA  0600   80     230/ 12/ 13 1011.0R
YORKTOWN VA      0600   78 84  220/ 11/ 12 1011.2S
JAMESTOWN VA     0700   78 86  300/  4/  6   N/A
DOMINION TERM VA 0600   80     240/  9/ 10 1011.5S
KIPTOPEKE VA     0600      82  220/  9/ 10   N/A
CHES BAY BRIDGE  0600   79 78  200/ 11/ 13 1011.1F
CAPE HENRY VA    0600   78     200/  8/ 10   N/A
CHESAPEAKE LGHT  0600   80     220/ 12/ 14 1012.5R
WILLOUBY STN VA  0600   80     220/ 13/ 15 1012.6R
CAPE HENRY BUOY  0628      80                N/A     2/12   2/12
1ST LANDING BUOY 0700      78              1011.4F   1/ 3
CAPE CHARLES BUO 0626      78                N/A     2/11   2/11
OFFSHORE WE BUOY 0611      82                N/A     3/12   2/12
64NM E OF VA BCH 0650   81 81  240/  8/ 10 1011.6F   3/ 8   3/ 8
DUCK PIER NC     0600   80 76  230/  9/ 14 1011.4F
44100 DUCK FRF   0624      81                N/A     2/ 9
44056 DUCK FRF   0611      79                N/A     2/11
OREGON INLET NC  0600   80 80  240/ 12/ 14 1012.2F
HATTERAS NC      0600   79 81  240/  6/  8 1012.2F
DIAMOND SHLS NC  0650   81 84  270/ 14/ 17 1012.2F   4/ 7   2/ 7
CAPE LOOKOUT NC  0700   80     260/ 10/ 12 1012.1F
$$



USA.gov is the U.S. government's official web portal to all federal, state and local government web resources and services.